When you browse on this site, cookies collect data to enhance your experience and personalize the content and advertising you see.
Visit our Privacy Policy to learn more. By continuing to use the site, you agree to this use of cookies and data.
  • In United Kingdom
  • List of Countries
  • For 7 days
  • Water Temperature
  • Weather Map
  • Weather Widgets
  • user-avatar
    Login

    Hourly Weather Ignatiki

    Today, 17 October, Thursday

    Time Temperature Precipitation Wind Pressure Humidity
    00:00 +12°C° 0 mm 4 mps 745 mmHg 86%
    01:00 +13°C° 0 mm 4 mps 745 mmHg 86%
    02:00 +13°C° 0 mm 4 mps 745 mmHg 86%
    03:00 +13°C° 0 mm 4 mps 745 mmHg 88%
    04:00 +12°C° 0 mm 4 mps 745 mmHg 90%
    05:00 +12°C° 0 mm 4 mps 745 mmHg 93%
    06:00 +12°C° 0 mm 5 mps 745 mmHg 91%
    07:00 +10°C° 0 mm 5 mps 744 mmHg 88%
    08:00 +9°C° 0 mm 5 mps 744 mmHg 86%
    09:00 +10°C° 0.2 mm 5 mps 744 mmHg 86%
    10:00 +10°C° 0.2 mm 6 mps 744 mmHg 85%
    11:00 +10°C° 0.2 mm 7 mps 745 mmHg 84%
    12:00 +10°C° 0.3 mm 7 mps 745 mmHg 85%
    13:00 +11°C° 0.3 mm 7 mps 745 mmHg 86%
    14:00 +11°C° 0.3 mm 7 mps 745 mmHg 86%
    15:00 +11°C° 0.2 mm 7 mps 745 mmHg 87%
    16:00 +11°C° 0.2 mm 6 mps 746 mmHg 88%
    17:00 +11°C° 0.2 mm 6 mps 746 mmHg 89%
    18:00 +11°C° 0.2 mm 6 mps 746 mmHg 89%
    19:00 +12°C° 0.2 mm 5 mps 746 mmHg 89%
    20:00 +12°C° 0.2 mm 5 mps 747 mmHg 89%
    21:00 +12°C° 0 mm 5 mps 747 mmHg 89%
    22:00 +11°C° 0 mm 4 mps 747 mmHg 90%
    23:00 +11°C° 0 mm 4 mps 748 mmHg 91%

    Tomorrow, 18 October, Friday

    Time Temperature Precipitation Wind Pressure Humidity
    00:00 +10°C° 0 mm 4 mps 748 mmHg 92%
    01:00 +10°C° 0 mm 3 mps 748 mmHg 93%
    02:00 +9°C° 0 mm 3 mps 748 mmHg 94%
    03:00 +9°C° 0 mm 3 mps 748 mmHg 94%
    04:00 +10°C° 0 mm 3 mps 748 mmHg 94%
    05:00 +10°C° 0 mm 2 mps 748 mmHg 94%
    06:00 +10°C° 0.1 mm 3 mps 748 mmHg 94%
    07:00 +10°C° 0.1 mm 3 mps 749 mmHg 95%
    08:00 +10°C° 0.1 mm 3 mps 749 mmHg 95%
    09:00 +11°C° 0.1 mm 3 mps 749 mmHg 94%
    10:00 +11°C° 0.1 mm 3 mps 749 mmHg 93%
    11:00 +12°C° 0.1 mm 3 mps 749 mmHg 92%
    12:00 +13°C° 0 mm 2 mps 749 mmHg 89%
    13:00 +14°C° 0 mm 2 mps 749 mmHg 87%
    14:00 +15°C° 0 mm 2 mps 749 mmHg 84%
    15:00 +14°C° 0 mm 2 mps 749 mmHg 86%
    16:00 +14°C° 0 mm 1 mps 749 mmHg 88%
    17:00 +13°C° 0 mm 1 mps 749 mmHg 90%
    18:00 +12°C° 0 mm 1 mps 749 mmHg 90%
    19:00 +12°C° 0 mm 1 mps 749 mmHg 91%
    20:00 +11°C° 0 mm 1 mps 749 mmHg 91%
    21:00 +10°C° 0 mm 2 mps 749 mmHg 91%
    22:00 +10°C° 0 mm 2 mps 749 mmHg 92%
    23:00 +10°C° 0 mm 2 mps 749 mmHg 92%

    Day after tomorrow, 19 October, Saturday

    Time Temperature Precipitation Wind Pressure Humidity
    00:00 +9°C° 0 mm 2 mps 749 mmHg 92%
    01:00 +9°C° 0 mm 2 mps 749 mmHg 93%
    02:00 +9°C° 0 mm 2 mps 749 mmHg 93%
    03:00 +9°C° 0 mm 2 mps 749 mmHg 93%
    04:00 +9°C° 0 mm 2 mps 749 mmHg 92%
    05:00 +9°C° 0 mm 2 mps 748 mmHg 92%
    06:00 +10°C° 0 mm 2 mps 748 mmHg 92%
    07:00 +10°C° 0 mm 3 mps 748 mmHg 91%
    08:00 +10°C° 0 mm 3 mps 748 mmHg 91%
    09:00 +11°C° 0 mm 3 mps 748 mmHg 87%
    10:00 +13°C° 0 mm 3 mps 748 mmHg 84%
    11:00 +14°C° 0 mm 3 mps 748 mmHg 81%
    12:00 +14°C° 0 mm 3 mps 748 mmHg 80%
    13:00 +16°C° 0 mm 3 mps 748 mmHg 79%
    14:00 +16°C° 0 mm 2 mps 748 mmHg 78%
    15:00 +16°C° 0 mm 2 mps 748 mmHg 82%
    16:00 +15°C° 0 mm 2 mps 748 mmHg 86%
    17:00 +14°C° 0 mm 2 mps 748 mmHg 91%
    18:00 +13°C° 0 mm 2 mps 749 mmHg 91%
    19:00 +13°C° 0 mm 2 mps 749 mmHg 92%
    20:00 +12°C° 0 mm 2 mps 749 mmHg 93%
    21:00 +12°C° 0 mm 2 mps 749 mmHg 93%
    22:00 +12°C° 0 mm 2 mps 749 mmHg 93%
    23:00 +12°C° 0 mm 1 mps 749 mmHg 93%

    20 October, Sunday

    Time Temperature Precipitation Wind Pressure Humidity
    00:00 +12°C° 0 mm 1 mps 749 mmHg 93%
    01:00 +12°C° 0 mm 1 mps 749 mmHg 94%
    02:00 +12°C° 0 mm 1 mps 749 mmHg 94%
    03:00 +11°C° 0 mm 1 mps 749 mmHg 94%
    04:00 +11°C° 0 mm 1 mps 749 mmHg 94%
    05:00 +11°C° 0 mm 1 mps 749 mmHg 95%
    06:00 +11°C° 0 mm 1 mps 749 mmHg 95%
    07:00 +11°C° 0 mm 1 mps 749 mmHg 95%
    08:00 +11°C° 0 mm 1 mps 749 mmHg 95%
    09:00 +12°C° 0 mm 1 mps 749 mmHg 91%
    10:00 +14°C° 0 mm 2 mps 750 mmHg 86%
    11:00 +15°C° 0 mm 2 mps 750 mmHg 82%
    12:00 +16°C° 0 mm 2 mps 750 mmHg 80%
    13:00 +16°C° 0 mm 2 mps 750 mmHg 78%
    14:00 +17°C° 0 mm 2 mps 749 mmHg 75%
    15:00 +16°C° 0 mm 2 mps 749 mmHg 80%
    16:00 +15°C° 0 mm 2 mps 749 mmHg 85%
    17:00 +14°C° 0 mm 2 mps 749 mmHg 90%
    18:00 +14°C° 0 mm 2 mps 749 mmHg 91%
    19:00 +13°C° 0 mm 2 mps 749 mmHg 92%
    20:00 +13°C° 0 mm 2 mps 749 mmHg 93%
    21:00 +13°C° 0 mm 2 mps 749 mmHg 93%
    22:00 +12°C° 0 mm 2 mps 749 mmHg 94%
    23:00 +12°C° 0 mm 2 mps 749 mmHg 94%

    21 October, Monday

    Time Temperature Precipitation Wind Pressure Humidity
    00:00 +12°C° 0 mm 2 mps 748 mmHg 94%
    01:00 +12°C° 0 mm 2 mps 748 mmHg 94%
    02:00 +10°C° 0 mm 2 mps 748 mmHg 94%
    03:00 +10°C° 0 mm 2 mps 748 mmHg 94%
    04:00 +10°C° 0 mm 2 mps 748 mmHg 95%
    05:00 +10°C° 0 mm 2 mps 748 mmHg 95%
    06:00 +10°C° 0 mm 2 mps 749 mmHg 95%
    07:00 +10°C° 0 mm 2 mps 749 mmHg 96%
    08:00 +10°C° 0 mm 2 mps 749 mmHg 96%
    09:00 +12°C° 0 mm 2 mps 750 mmHg 92%
    10:00 +12°C° 0 mm 3 mps 750 mmHg 89%
    11:00 +13°C° 0 mm 3 mps 751 mmHg 85%
    12:00 +13°C° 0 mm 3 mps 751 mmHg 83%
    13:00 +13°C° 0 mm 3 mps 751 mmHg 81%
    14:00 +13°C° 0 mm 3 mps 751 mmHg 79%
    15:00 +12°C° 0 mm 3 mps 752 mmHg 83%
    16:00 +11°C° 0 mm 3 mps 752 mmHg 87%
    17:00 +10°C° 0 mm 2 mps 752 mmHg 91%
    18:00 +10°C° 0 mm 2 mps 753 mmHg 90%
    19:00 +10°C° 0 mm 2 mps 753 mmHg 90%
    20:00 +9°C° 0 mm 2 mps 753 mmHg 90%
    21:00 +9°C° 0 mm 2 mps 753 mmHg 91%
    22:00 +9°C° 0 mm 2 mps 754 mmHg 93%
    23:00 +8°C° 0 mm 2 mps 754 mmHg 94%

    22 October, Tuesday

    Time Temperature Precipitation Wind Pressure Humidity
    00:00 +8°C° 0 mm 2 mps 754 mmHg 95%
    01:00 +8°C° 0 mm 2 mps 754 mmHg 95%
    02:00 +8°C° 0 mm 2 mps 754 mmHg 96%
    03:00 +8°C° 0 mm 3 mps 754 mmHg 95%
    04:00 +8°C° 0 mm 3 mps 754 mmHg 95%
    05:00 +7°C° 0 mm 3 mps 755 mmHg 94%
    06:00 +7°C° 0 mm 2 mps 755 mmHg 90%
    07:00 +8°C° 0 mm 2 mps 755 mmHg 87%
    08:00 +8°C° 0 mm 2 mps 756 mmHg 83%
    09:00 +8°C° 0 mm 2 mps 756 mmHg 80%
    10:00 +9°C° 0 mm 2 mps 756 mmHg 76%
    11:00 +10°C° 0 mm 2 mps 756 mmHg 73%
    12:00 +10°C° 0 mm 2 mps 756 mmHg 71%
    13:00 +10°C° 0 mm 2 mps 756 mmHg 69%
    14:00 +10°C° 0 mm 2 mps 756 mmHg 67%
    15:00 +10°C° 0 mm 2 mps 756 mmHg 69%
    16:00 +9°C° 0 mm 2 mps 756 mmHg 71%
    17:00 +9°C° 0 mm 2 mps 756 mmHg 73%
    18:00 +9°C° 0 mm 2 mps 757 mmHg 75%
    19:00 +8°C° 0 mm 2 mps 757 mmHg 77%
    20:00 +8°C° 0 mm 2 mps 757 mmHg 78%
    21:00 +8°C° 0 mm 2 mps 757 mmHg 81%
    22:00 +8°C° 0 mm 2 mps 757 mmHg 83%
    23:00 +7°C° 0 mm 2 mps 758 mmHg 86%
    Show more